This is the latest recevied weather packets stored in our database for station/object KK7ISX. If no packets are shown the sender has not sent any weather packets the latest 1 day(s).
| Time | Temp. | Humidity | Pressure | Rain* | Wind** | Luminosity | Snow |
|---|---|---|---|---|---|---|---|
| 1777988624 | 10.56° C | 71% | 1009.5 hPa | 0 mm | 0.45 m/s, 154° | 56 W/m² | - |
| 1777988320 | 10.56° C | 71% | 1009.5 hPa | 0 mm | 0.45 m/s, 146° | 51 W/m² | - |
| 1777988018 | 10° C | 71% | 1009.4 hPa | 0 mm | 0.45 m/s, 175° | 45 W/m² | - |
| 1777987713 | 10° C | 73% | 1009.3 hPa | 0 mm | 0.45 m/s, 191° | 37 W/m² | - |
| 1777987410 | 10° C | 73% | 1009.3 hPa | 0 mm | 0 m/s | 30 W/m² | - |
| 1777987107 | 10° C | 72% | 1009 hPa | 0 mm | 0 m/s | 25 W/m² | - |
| 1777986805 | 10° C | 71% | 1008.9 hPa | 0 mm | 0.45 m/s, 182° | 22 W/m² | - |
| 1777986503 | 10° C | 71% | 1008.9 hPa | 0 mm | 0.45 m/s, 162° | 20 W/m² | - |
| 1777986201 | 10° C | 71% | 1008.7 hPa | 0 mm | 0 m/s | 17 W/m² | - |
| 1777985897 | 10.56° C | 70% | 1008.6 hPa | 0 mm | 0 m/s | 15 W/m² | - |
| 1777985595 | 10° C | 71% | 1008.4 hPa | 0 mm | 0 m/s | 12 W/m² | - |
| 1777985291 | 10° C | 70% | 1008.3 hPa | 0 mm | 0 m/s | 9 W/m² | - |
| 1777984988 | 10° C | 71% | 1008.2 hPa | 0 mm | 0 m/s | 7 W/m² | - |
| 1777984684 | 10.56° C | 70% | 1008.3 hPa | 0 mm | 0 m/s | 5 W/m² | - |
| 1777984380 | 10.56° C | 70% | 1008.3 hPa | 0 mm | 0 m/s | 3 W/m² | - |
| 1777984077 | 10.56° C | 69% | 1008 hPa | 0 mm | 0.45 m/s, 180° | 2 W/m² | - |
| 1777983775 | 10.56° C | 69% | 1008.1 hPa | 0 mm | 0 m/s | 1 W/m² | - |
| 1777983471 | 10.56° C | 69% | 1007.9 hPa | 0 mm | 0 m/s | 0 W/m² | - |
| 1777983168 | 10.56° C | 68% | 1008 hPa | 0 mm | 0.89 m/s, 187° | 0 W/m² | - |
| 1777982864 | 10.56° C | 68% | 1007.8 hPa | 0 mm | 0.45 m/s, 199° | 0 W/m² | - |
| 1777982560 | 10.56° C | 67% | 1007.7 hPa | 0 mm | 0.45 m/s, 181° | 0 W/m² | - |
| 1777982259 | 10.56° C | 67% | 1007.7 hPa | 0 mm | 0.89 m/s, 148° | 0 W/m² | - |
| 1777981957 | 11.11° C | 68% | 1007.8 hPa | 0 mm | 0.45 m/s, 189° | 0 W/m² | - |
| 1777981654 | 11.11° C | 67% | 1007.4 hPa | 0 mm | 0.45 m/s, 169° | 0 W/m² | - |
| 1777981359 | 11.11° C | 67% | 1007.6 hPa | 0 mm | 0 m/s | 0 W/m² | - |
* Rain latest hour (hover to see other rain measurements)
** Current wind speed in m/s (hover to see current wind gust speed)